Time,TemperatureF,DewpointF,PressureIn,WindDirection,WindDirectionDegrees,WindSpeedMPH,WindSpeedGustMPH,Humidity,HourlyPrecipIn,Conditions,Clouds,dailyrainin,SoftwareType,DateUTC
2013-07-18 00:01:00,81.8,73.1,31.59,South,179,0.0,1.0,75,0.00,,---,0.00,VWS V14.01,2013-07-18 04:01:00,
2013-07-18 00:06:00,81.8,72.7,31.59,South,180,0.0,0.0,74,0.00,,---,0.00,VWS V14.01,2013-07-18 04:06:00,
2013-07-18 00:11:00,81.7,72.6,31.59,South,179,0.0,0.0,74,0.00,,---,0.00,VWS V14.01,2013-07-18 04:11:00,
2013-07-18 00:16:00,81.6,72.5,31.59,South,179,0.0,1.0,74,0.00,,---,0.00,VWS V14.01,2013-07-18 04:16:00,
2013-07-18 00:21:00,81.6,72.1,31.59,South,180,0.0,1.0,73,0.00,,---,0.00,VWS V14.01,2013-07-18 04:21:00,
2013-07-18 00:26:00,81.6,72.1,31.59,SSW,204,1.0,2.0,73,0.00,,---,0.00,VWS V14.01,2013-07-18 04:26:00,
2013-07-18 00:31:00,81.5,71.6,31.59,SSW,203,0.0,2.0,72,0.00,,---,0.00,VWS V14.01,2013-07-18 04:31:00,
2013-07-18 00:36:00,81.5,71.6,31.59,SSW,203,0.0,1.0,72,0.00,,---,0.00,VWS V14.01,2013-07-18 04:36:00,
2013-07-18 00:41:00,81.6,71.7,31.59,SSW,203,0.0,1.0,72,0.00,,---,0.00,VWS V14.01,2013-07-18 04:41:00,
2013-07-18 00:46:00,81.6,71.3,31.59,SSW,204,0.0,1.0,71,0.00,,---,0.00,VWS V14.01,2013-07-18 04:46:00,
2013-07-18 00:51:00,81.6,70.9,31.59,SSW,203,0.0,1.0,70,0.00,,---,0.00,VWS V14.01,2013-07-18 04:51:00,
2013-07-18 00:56:00,81.6,70.9,31.59,SSW,203,0.0,1.0,70,0.00,,---,0.00,VWS V14.01,2013-07-18 04:56:00,
2013-07-18 01:01:00,81.6,70.9,31.59,SSW,203,0.0,1.0,70,0.00,,---,0.00,VWS V14.01,2013-07-18 05:01:00,
2013-07-18 01:06:00,81.5,70.4,31.59,SSW,204,0.0,0.0,69,0.00,,---,0.00,VWS V14.01,2013-07-18 05:06:00,
2013-07-18 01:11:00,81.5,70.4,31.59,SSW,204,0.0,0.0,69,0.00,,---,0.00,VWS V14.01,2013-07-18 05:11:00,
2013-07-18 01:16:00,81.4,69.8,31.59,SSW,203,0.0,0.0,68,0.00,,---,0.00,VWS V14.01,2013-07-18 05:16:00,
2013-07-18 01:21:00,81.4,69.8,31.59,SSW,204,0.0,0.0,68,0.00,,---,0.00,VWS V14.01,2013-07-18 05:21:00,
2013-07-18 01:26:00,81.3,69.7,31.59,SSW,204,0.0,0.0,68,0.00,,---,0.00,VWS V14.01,2013-07-18 05:26:00,
2013-07-18 01:31:00,81.2,69.2,31.59,SSW,204,0.0,0.0,67,0.00,,---,0.00,VWS V14.01,2013-07-18 05:31:00,
2013-07-18 01:36:00,81.1,69.1,31.59,SSW,203,0.0,0.0,67,0.00,,---,0.00,VWS V14.01,2013-07-18 05:36:00,
2013-07-18 01:41:00,81.1,68.7,31.59,SSW,204,0.0,0.0,66,0.00,,---,0.00,VWS V14.01,2013-07-18 05:41:00,
2013-07-18 01:46:00,80.9,68.0,31.59,SSW,203,0.0,0.0,65,0.00,,---,0.00,VWS V14.01,2013-07-18 05:46:00,
2013-07-18 01:51:00,80.7,67.8,31.59,SSW,204,0.0,1.0,65,0.00,,---,0.00,VWS V14.01,2013-07-18 05:51:00,
2013-07-18 01:56:00,80.7,67.4,31.59,SSW,203,0.0,1.0,64,0.00,,---,0.00,VWS V14.01,2013-07-18 05:56:00,
2013-07-18 02:01:00,80.6,66.8,31.59,SSW,204,0.0,1.0,63,0.00,,---,0.00,VWS V14.01,2013-07-18 06:01:00,
2013-07-18 02:06:00,80.6,66.8,31.59,SSW,204,0.0,0.0,63,0.00,,---,0.00,VWS V14.01,2013-07-18 06:06:00,
2013-07-18 02:11:00,80.5,66.3,31.59,SSW,203,0.0,0.0,62,0.00,,---,0.00,VWS V14.01,2013-07-18 06:11:00,
2013-07-18 02:16:00,80.3,65.6,31.59,SSW,203,0.0,0.0,61,0.00,,---,0.00,VWS V14.01,2013-07-18 06:16:00,
2013-07-18 02:21:00,80.2,65.1,31.59,SSW,204,0.0,0.0,60,0.00,,---,0.00,VWS V14.01,2013-07-18 06:21:00,
2013-07-18 02:26:00,80.2,64.6,31.59,SSW,204,0.0,0.0,59,0.00,,---,0.00,VWS V14.01,2013-07-18 06:26:00,
2013-07-18 02:31:00,80.2,64.1,31.59,SSW,203,0.0,0.0,58,0.00,,---,0.00,VWS V14.01,2013-07-18 06:31:00,
2013-07-18 02:36:00,80.2,63.6,31.59,SSW,203,0.0,0.0,57,0.00,,---,0.00,VWS V14.01,2013-07-18 06:36:00,
2013-07-18 02:41:00,80.1,63.0,31.59,SSW,204,0.0,0.0,56,0.00,,---,0.00,VWS V14.01,2013-07-18 06:41:00,
2013-07-18 02:46:00,80.1,62.5,31.59,SSW,204,0.0,0.0,55,0.00,,---,0.00,VWS V14.01,2013-07-18 06:46:00,
2013-07-18 02:51:00,80.1,62.5,31.59,SSW,204,0.0,0.0,55,0.00,,---,0.00,VWS V14.01,2013-07-18 06:51:00,
2013-07-18 02:56:00,80.1,62.0,31.59,SSW,203,0.0,0.0,54,0.00,,---,0.00,VWS V14.01,2013-07-18 06:56:00,
2013-07-18 03:01:00,80.0,61.3,31.59,SSW,204,0.0,0.0,53,0.00,,---,0.00,VWS V14.01,2013-07-18 07:01:00,
2013-07-18 03:06:00,80.0,61.3,31.59,SSW,204,0.0,0.0,53,0.00,,---,0.00,VWS V14.01,2013-07-18 07:06:00,
2013-07-18 03:11:00,80.0,60.8,31.59,SSW,204,0.0,0.0,52,0.00,,---,0.00,VWS V14.01,2013-07-18 07:11:00,
2013-07-18 03:16:00,80.0,60.3,31.59,SSW,203,0.0,0.0,51,0.00,,---,0.00,VWS V14.01,2013-07-18 07:16:00,
2013-07-18 03:21:00,79.9,60.2,31.59,SSW,204,0.0,0.0,51,0.00,,---,0.00,VWS V14.01,2013-07-18 07:21:00,
2013-07-18 03:26:00,79.9,60.2,31.59,SSW,204,0.0,0.0,51,0.00,,---,0.00,VWS V14.01,2013-07-18 07:26:00,
2013-07-18 03:31:00,79.8,60.1,31.59,SSW,203,0.0,0.0,51,0.00,,---,0.00,VWS V14.01,2013-07-18 07:31:00,
2013-07-18 03:36:00,79.7,59.4,31.59,SSW,204,0.0,0.0,50,0.00,,---,0.00,VWS V14.01,2013-07-18 07:36:00,
2013-07-18 03:41:00,79.7,59.4,31.59,SSW,204,0.0,0.0,50,0.00,,---,0.00,VWS V14.01,2013-07-18 07:41:00,
2013-07-18 03:46:00,79.6,59.3,31.59,SSW,204,0.0,0.0,50,0.00,,---,0.00,VWS V14.01,2013-07-18 07:46:00,
2013-07-18 03:51:00,79.5,58.7,31.59,SSW,203,0.0,0.0,49,0.00,,---,0.00,VWS V14.01,2013-07-18 07:51:00,
2013-07-18 03:56:00,79.4,58.6,31.59,SSW,203,0.0,0.0,49,0.00,,---,0.00,VWS V14.01,2013-07-18 07:56:00,
2013-07-18 04:01:00,79.2,57.8,31.59,SSW,204,0.0,0.0,48,0.00,,---,0.00,VWS V14.01,2013-07-18 08:01:00,
2013-07-18 04:06:00,79.2,57.8,31.59,SSW,204,0.0,0.0,48,0.00,,---,0.00,VWS V14.01,2013-07-18 08:06:00,
2013-07-18 04:11:00,79.1,57.8,31.59,SSW,203,0.0,0.0,48,0.00,,---,0.00,VWS V14.01,2013-07-18 08:11:00,
2013-07-18 04:16:00,79.1,57.8,31.59,SSW,203,0.0,0.0,48,0.00,,---,0.00,VWS V14.01,2013-07-18 08:16:00,
2013-07-18 04:21:00,79.0,57.1,31.59,SSW,204,0.0,0.0,47,0.00,,---,0.00,VWS V14.01,2013-07-18 08:21:00,
2013-07-18 04:26:00,79.0,57.1,31.59,SSW,204,0.0,0.0,47,0.00,,---,0.00,VWS V14.01,2013-07-18 08:26:00,
2013-07-18 04:31:00,79.0,57.1,31.59,SSW,204,0.0,0.0,47,0.00,,---,0.00,VWS V14.01,2013-07-18 08:31:00,
2013-07-18 04:36:00,79.0,56.5,31.59,SSW,203,0.0,0.0,46,0.00,,---,0.00,VWS V14.01,2013-07-18 08:36:00,
2013-07-18 04:41:00,79.0,56.5,31.59,SSW,203,0.0,0.0,46,0.00,,---,0.00,VWS V14.01,2013-07-18 08:41:00,
2013-07-18 04:46:00,79.0,56.5,31.59,SSW,204,0.0,0.0,46,0.00,,---,0.00,VWS V14.01,2013-07-18 08:46:00,
2013-07-18 04:51:00,79.0,56.5,31.59,SSW,204,0.0,0.0,46,0.00,,---,0.00,VWS V14.01,2013-07-18 08:51:00,
2013-07-18 04:56:00,79.0,56.5,31.59,SSW,203,0.0,0.0,46,0.00,,---,0.00,VWS V14.01,2013-07-18 08:56:00,
2013-07-18 05:01:00,78.9,56.4,31.59,SSW,203,0.0,0.0,46,0.00,,---,0.00,VWS V14.01,2013-07-18 09:01:00,
2013-07-18 05:06:00,78.8,56.3,31.59,SSW,204,0.0,0.0,46,0.00,,---,0.00,VWS V14.01,2013-07-18 09:06:00,
2013-07-18 05:11:00,78.7,56.2,31.59,SSW,203,0.0,0.0,46,0.00,,---,0.00,VWS V14.01,2013-07-18 09:11:00,
2013-07-18 05:16:00,78.7,56.2,31.59,SSW,203,0.0,0.0,46,0.00,,---,0.00,VWS V14.01,2013-07-18 09:16:00,
2013-07-18 05:21:00,78.7,56.2,31.59,SSW,203,0.0,0.0,46,0.00,,---,0.00,VWS V14.01,2013-07-18 09:21:00,
2013-07-18 05:26:00,78.7,56.2,31.59,SSW,203,0.0,0.0,46,0.00,,---,0.00,VWS V14.01,2013-07-18 09:26:00,
2013-07-18 05:31:00,78.7,56.2,31.59,SSW,204,0.0,0.0,46,0.00,,---,0.00,VWS V14.01,2013-07-18 09:31:00,
2013-07-18 05:36:00,78.6,56.1,31.59,SSW,204,0.0,0.0,46,0.00,,---,0.00,VWS V14.01,2013-07-18 09:36:00,
2013-07-18 05:41:00,78.6,55.5,31.59,SSW,203,0.0,0.0,45,0.00,,---,0.00,VWS V14.01,2013-07-18 09:41:00,
2013-07-18 05:46:00,78.5,55.4,31.59,SSW,204,0.0,0.0,45,0.00,,---,0.00,VWS V14.01,2013-07-18 09:46:00,
2013-07-18 05:51:00,78.4,55.3,31.59,SSW,203,0.0,0.0,45,0.00,,---,0.00,VWS V14.01,2013-07-18 09:51:00,
2013-07-18 05:56:00,78.4,55.3,31.59,SSW,204,0.0,0.0,45,0.00,,---,0.00,VWS V14.01,2013-07-18 09:56:00,
2013-07-18 06:01:00,78.4,55.3,31.59,SSW,204,0.0,0.0,45,0.00,,---,0.00,VWS V14.01,2013-07-18 10:01:00,
2013-07-18 06:06:00,78.4,55.3,31.59,SSW,204,0.0,0.0,45,0.00,,---,0.00,VWS V14.01,2013-07-18 10:06:00,
2013-07-18 06:11:00,78.5,55.4,31.59,SSW,203,0.0,0.0,45,0.00,,---,0.00,VWS V14.01,2013-07-18 10:11:00,
2013-07-18 06:16:00,78.5,54.8,31.59,SSW,203,0.0,0.0,44,0.00,,---,0.00,VWS V14.01,2013-07-18 10:16:00,
2013-07-18 06:21:00,78.6,54.9,31.59,SSW,204,0.0,0.0,44,0.00,,---,0.00,VWS V14.01,2013-07-18 10:21:00,
2013-07-18 06:26:00,78.7,55.0,31.59,SSW,197,0.0,0.0,44,0.00,,---,0.00,VWS V14.01,2013-07-18 10:26:00,
2013-07-18 06:31:00,78.7,54.3,31.59,SSW,196,0.0,0.0,43,0.00,,---,0.00,VWS V14.01,2013-07-18 10:31:00,
2013-07-18 06:36:00,78.9,54.5,31.59,SSW,197,0.0,0.0,43,0.00,,---,0.00,VWS V14.01,2013-07-18 10:36:00,
2013-07-18 06:41:00,79.0,54.6,31.59,SSW,196,0.0,0.0,43,0.00,,---,0.00,VWS V14.01,2013-07-18 10:41:00,
2013-07-18 06:46:00,79.1,54.7,31.59,SSW,197,0.0,0.0,43,0.00,,---,0.00,VWS V14.01,2013-07-18 10:46:00,
2013-07-18 06:51:00,79.3,54.9,31.59,SSW,197,0.0,0.0,43,0.00,,---,0.00,VWS V14.01,2013-07-18 10:51:00,
2013-07-18 06:56:00,79.6,55.2,31.59,SSW,196,0.0,0.0,43,0.00,,---,0.00,VWS V14.01,2013-07-18 10:56:00,
2013-07-18 07:01:00,80.0,55.5,31.59,SSW,197,0.0,0.0,43,0.00,,---,0.00,VWS V14.01,2013-07-18 11:01:00,
2013-07-18 07:06:00,80.3,56.4,31.59,SSW,197,0.0,0.0,44,0.00,,---,0.00,VWS V14.01,2013-07-18 11:06:00,
2013-07-18 07:11:00,80.7,57.4,31.59,SSW,197,0.0,0.0,45,0.00,,---,0.00,VWS V14.01,2013-07-18 11:11:00,
2013-07-18 07:16:00,81.3,58.6,31.59,SSW,197,0.0,1.0,46,0.00,,---,0.00,VWS V14.01,2013-07-18 11:16:00,
2013-07-18 07:21:00,81.9,60.3,31.59,SSW,196,0.0,2.0,48,0.00,,---,0.00,VWS V14.01,2013-07-18 11:21:00,
2013-07-18 07:26:00,82.4,61.9,31.59,SSW,197,0.0,2.0,50,0.00,,---,0.00,VWS V14.01,2013-07-18 11:26:00,
2013-07-18 07:31:00,82.9,62.9,31.59,SSW,197,0.0,2.0,51,0.00,,---,0.00,VWS V14.01,2013-07-18 11:31:00,
2013-07-18 07:36:00,83.3,64.4,31.59,SSW,197,0.0,0.0,53,0.00,,---,0.00,VWS V14.01,2013-07-18 11:36:00,
2013-07-18 07:41:00,83.8,64.9,31.59,SSW,196,0.0,1.0,53,0.00,,---,0.00,VWS V14.01,2013-07-18 11:41:00,
2013-07-18 07:46:00,84.4,65.9,31.59,SSW,197,0.0,1.0,54,0.00,,---,0.00,VWS V14.01,2013-07-18 11:46:00,
2013-07-18 07:51:00,84.8,67.4,31.59,SSW,197,0.0,1.0,56,0.00,,---,0.00,VWS V14.01,2013-07-18 11:51:00,
2013-07-18 07:56:00,85.2,67.8,31.59,SSW,213,0.0,2.0,56,0.00,,---,0.00,VWS V14.01,2013-07-18 11:56:00,
2013-07-18 08:01:00,85.7,68.7,31.59,SSW,213,0.0,2.0,57,0.00,,---,0.00,VWS V14.01,2013-07-18 12:01:00,
2013-07-18 08:06:00,86.2,69.2,31.59,SSW,213,0.0,1.0,57,0.00,,---,0.00,VWS V14.01,2013-07-18 12:06:00,
2013-07-18 08:11:00,86.7,69.7,31.59,SSW,213,0.0,1.0,57,0.00,,---,0.00,VWS V14.01,2013-07-18 12:11:00,
2013-07-18 08:16:00,87.1,70.5,31.59,SSW,213,0.0,1.0,58,0.00,,---,0.00,VWS V14.01,2013-07-18 12:16:00,
2013-07-18 08:21:00,87.4,71.3,31.59,SW,236,0.0,3.0,59,0.00,,---,0.00,VWS V14.01,2013-07-18 12:21:00,
2013-07-18 08:26:00,87.8,71.7,31.59,SW,236,0.0,3.0,59,0.00,,---,0.00,VWS V14.01,2013-07-18 12:26:00,
2013-07-18 08:31:00,88.3,72.2,31.59,SW,236,0.0,3.0,59,0.00,,---,0.00,VWS V14.01,2013-07-18 12:31:00,
2013-07-18 08:36:00,88.6,73.4,31.59,SW,232,0.0,0.0,61,0.00,,---,0.00,VWS V14.01,2013-07-18 12:36:00,
2013-07-18 08:41:00,89.0,73.8,31.59,WSW,255,0.0,1.0,61,0.00,,---,0.00,VWS V14.01,2013-07-18 12:41:00,
2013-07-18 08:46:00,89.6,74.4,31.59,WSW,254,0.0,1.0,61,0.00,,---,0.00,VWS V14.01,2013-07-18 12:46:00,
2013-07-18 08:51:00,90.1,75.3,31.59,NNE,14,2.0,5.0,62,0.00,,---,0.00,VWS V14.01,2013-07-18 12:51:00,
2013-07-18 08:56:00,90.3,75.5,31.59,NNE,15,0.0,5.0,62,0.00,,---,0.00,VWS V14.01,2013-07-18 12:56:00,
2013-07-18 09:01:00,90.7,76.4,31.59,WSW,250,0.0,5.0,63,0.00,,---,0.00,VWS V14.01,2013-07-18 13:01:00,
2013-07-18 09:06:00,91.0,76.7,31.59,NNE,15,1.0,1.0,63,0.00,,---,0.00,VWS V14.01,2013-07-18 13:06:00,
2013-07-18 09:11:00,91.5,77.1,31.59,NNE,16,1.0,1.0,63,0.00,,---,0.00,VWS V14.01,2013-07-18 13:11:00,
2013-07-18 09:16:00,91.8,77.4,31.59,WNW,284,0.0,4.0,63,0.00,,---,0.00,VWS V14.01,2013-07-18 13:16:00,
2013-07-18 09:20:00,92.0,78.1,31.59,West,280,0.0,4.0,64,0.00,,---,0.00,VWS V14.01,2013-07-18 13:20:00,
2013-07-18 09:25:00,92.1,77.7,31.59,West,280,0.0,4.0,63,0.00,,---,0.00,VWS V14.01,2013-07-18 13:25:00,
2013-07-18 09:30:00,92.5,78.1,31.59,West,281,0.0,4.0,63,0.00,,---,0.00,VWS V14.01,2013-07-18 13:30:00,
2013-07-18 09:35:00,92.8,78.4,31.59,West,281,0.0,2.0,63,0.00,,---,0.00,VWS V14.01,2013-07-18 13:35:00,
2013-07-18 09:40:00,93.4,79.4,31.59,West,280,0.0,2.0,64,0.00,,---,0.00,VWS V14.01,2013-07-18 13:40:00,
2013-07-18 09:45:00,94.0,79.5,31.59,West,280,0.0,2.0,63,0.00,,---,0.00,VWS V14.01,2013-07-18 13:45:00,
2013-07-18 09:50:00,94.2,80.2,31.59,West,281,0.0,2.0,64,0.00,,---,0.00,VWS V14.01,2013-07-18 13:50:00,
2013-07-18 09:55:00,94.2,80.2,31.59,West,281,0.0,2.0,64,0.00,,---,0.00,VWS V14.01,2013-07-18 13:55:00,
2013-07-18 10:00:00,94.4,80.3,31.59,WNW,288,0.0,2.0,64,0.00,,---,0.00,VWS V14.01,2013-07-18 14:00:00,
2013-07-18 10:05:00,94.3,80.2,31.59,NNW,333,1.0,1.0,64,0.00,,---,0.00,VWS V14.01,2013-07-18 14:05:00,
2013-07-18 10:10:00,93.5,79.0,31.59,NE,46,0.0,1.0,63,0.00,,---,0.00,VWS V14.01,2013-07-18 14:10:00,
2013-07-18 10:15:00,94.2,80.2,31.59,ENE,65,0.0,1.0,64,0.00,,---,0.00,VWS V14.01,2013-07-18 14:15:00,
2013-07-18 10:20:00,94.5,80.4,31.59,NE,35,3.0,4.0,64,0.00,,---,0.00,VWS V14.01,2013-07-18 14:20:00,
2013-07-18 10:25:00,95.0,80.9,31.59,WNW,297,0.0,4.0,64,0.00,,---,0.00,VWS V14.01,2013-07-18 14:25:00,
2013-07-18 10:30:00,94.9,80.8,31.59,WSW,257,0.0,5.0,64,0.00,,---,0.00,VWS V14.01,2013-07-18 14:30:00,
2013-07-18 10:35:00,95.1,80.5,31.59,NNE,20,0.0,4.0,63,0.00,,---,0.00,VWS V14.01,2013-07-18 14:35:00,
2013-07-18 10:40:00,95.4,81.3,31.59,NNE,26,0.0,4.0,64,0.00,,---,0.00,VWS V14.01,2013-07-18 14:40:00,
2013-07-18 10:45:00,95.3,81.2,31.59,NNE,28,0.0,4.0,64,0.00,,---,0.00,VWS V14.01,2013-07-18 14:45:00,
2013-07-18 10:50:00,94.8,80.7,31.59,East,94,1.0,4.0,64,0.00,,---,0.00,VWS V14.01,2013-07-18 14:50:00,
2013-07-18 10:55:00,95.7,81.6,31.59,SSE,164,0.0,4.0,64,0.00,,---,0.00,VWS V14.01,2013-07-18 14:55:00,
2013-07-18 11:00:00,95.7,81.1,31.59,SSE,152,0.0,4.0,63,0.00,,---,0.00,VWS V14.01,2013-07-18 15:00:00,
2013-07-18 11:05:00,95.4,80.8,31.59,West,261,0.0,7.0,63,0.00,,---,0.00,VWS V14.01,2013-07-18 15:05:00,
2013-07-18 11:10:00,95.3,80.7,31.59,WNW,292,0.0,7.0,63,0.00,,---,0.00,VWS V14.01,2013-07-18 15:10:00,
2013-07-18 11:15:00,94.8,80.2,31.59,SSW,206,0.0,9.0,63,0.00,,---,0.00,VWS V14.01,2013-07-18 15:15:00,
2013-07-18 11:20:00,94.3,79.8,31.59,SSW,204,2.0,9.0,63,0.00,,---,0.00,VWS V14.01,2013-07-18 15:20:00,
2013-07-18 11:25:00,95.0,80.4,31.59,West,260,0.0,9.0,63,0.00,,---,0.00,VWS V14.01,2013-07-18 15:25:00,
2013-07-18 11:30:00,95.8,81.2,31.59,West,259,0.0,9.0,63,0.00,,---,0.00,VWS V14.01,2013-07-18 15:30:00,
2013-07-18 11:35:00,96.8,79.6,31.59,West,262,0.0,8.0,58,0.00,,---,0.00,VWS V14.01,2013-07-18 15:35:00,
2013-07-18 11:40:00,96.0,79.9,31.59,West,262,0.0,8.0,60,0.00,,---,0.00,VWS V14.01,2013-07-18 15:40:00,
2013-07-18 11:45:00,96.6,79.4,31.59,West,275,0.0,8.0,58,0.00,,---,0.00,VWS V14.01,2013-07-18 15:45:00,
2013-07-18 11:50:00,97.7,79.9,31.59,West,264,0.0,8.0,57,0.00,,---,0.00,VWS V14.01,2013-07-18 15:50:00,
2013-07-18 11:55:00,97.4,79.1,31.59,West,262,0.0,8.0,56,0.00,,---,0.00,VWS V14.01,2013-07-18 15:55:00,
2013-07-18 12:00:00,98.0,79.6,31.59,North,5,0.0,8.0,56,0.00,,---,0.00,VWS V14.01,2013-07-18 16:00:00,
2013-07-18 12:05:00,98.7,80.8,31.59,NW,323,2.0,3.0,57,0.00,,---,0.00,VWS V14.01,2013-07-18 16:05:00,
2013-07-18 12:10:00,98.2,80.4,31.59,WSW,253,0.0,4.0,57,0.00,,---,0.00,VWS V14.01,2013-07-18 16:10:00,
2013-07-18 12:15:00,97.6,79.3,31.59,SSW,212,0.0,6.0,56,0.00,,---,0.00,VWS V14.01,2013-07-18 16:15:00,
2013-07-18 12:20:00,97.8,78.9,31.59,WSW,254,0.0,6.0,55,0.00,,---,0.00,VWS V14.01,2013-07-18 16:20:00,
2013-07-18 12:25:00,97.8,77.8,31.59,West,273,0.0,7.0,53,0.00,,---,0.00,VWS V14.01,2013-07-18 16:25:00,
2013-07-18 12:30:00,97.9,78.4,31.59,WNW,296,0.0,7.0,54,0.00,,---,0.00,VWS V14.01,2013-07-18 16:30:00,
2013-07-18 12:35:00,98.7,79.7,31.59,WSW,252,0.0,10.0,55,0.00,,---,0.00,VWS V14.01,2013-07-18 16:35:00,
2013-07-18 12:40:00,98.9,78.8,31.59,West,270,1.0,10.0,53,0.00,,---,0.00,VWS V14.01,2013-07-18 16:40:00,
2013-07-18 12:45:00,99.1,78.4,31.59,West,274,2.0,10.0,52,0.00,,---,0.00,VWS V14.01,2013-07-18 16:45:00,
2013-07-18 12:50:00,98.5,76.7,31.59,West,280,5.0,10.0,50,0.00,,---,0.00,VWS V14.01,2013-07-18 16:50:00,
2013-07-18 12:55:00,97.6,77.6,31.59,WSW,250,1.0,10.0,53,0.00,,---,0.00,VWS V14.01,2013-07-18 16:55:00,
2013-07-18 13:00:00,97.8,78.3,31.59,WSW,248,0.0,10.0,54,0.00,,---,0.00,VWS V14.01,2013-07-18 17:00:00,
2013-07-18 13:05:00,99.0,78.3,31.59,WSW,258,0.0,6.0,52,0.00,,---,0.00,VWS V14.01,2013-07-18 17:05:00,
2013-07-18 13:10:00,99.1,78.4,31.59,West,274,1.0,6.0,52,0.00,,---,0.00,VWS V14.01,2013-07-18 17:10:00,
2013-07-18 13:15:00,99.1,79.0,31.59,West,263,2.0,6.0,53,0.00,,---,0.00,VWS V14.01,2013-07-18 17:15:00,
2013-07-18 13:20:00,99.0,78.9,31.59,West,275,1.0,7.0,53,0.00,,---,0.00,VWS V14.01,2013-07-18 17:20:00,
2013-07-18 13:25:00,99.0,78.3,31.83,West,265,0.0,7.0,52,0.00,,---,0.00,VWS V14.01,2013-07-18 17:25:00,
2013-07-18 13:30:00,99.7,77.8,31.83,WNW,295,0.0,7.0,50,0.00,,---,0.00,VWS V14.01,2013-07-18 17:30:00,
2013-07-18 13:35:00,100.1,78.7,31.83,WNW,290,0.0,5.0,51,0.00,,---,0.00,VWS V14.01,2013-07-18 17:35:00,
2013-07-18 13:40:00,100.4,78.4,31.83,West,277,0.0,5.0,50,0.00,,---,0.00,VWS V14.01,2013-07-18 17:40:00,
2013-07-18 13:45:00,99.0,77.7,31.83,SW,236,0.0,5.0,51,0.00,,---,0.00,VWS V14.01,2013-07-18 17:45:00,
2013-07-18 13:50:00,98.1,76.9,31.83,SSW,204,2.0,9.0,51,0.00,,---,0.00,VWS V14.01,2013-07-18 17:50:00,
2013-07-18 13:55:00,98.9,77.0,31.83,WSW,253,1.0,9.0,50,0.00,,---,0.00,VWS V14.01,2013-07-18 17:55:00,
2013-07-18 14:00:00,99.6,76.4,31.83,WSW,257,1.0,9.0,48,0.00,,---,0.00,VWS V14.01,2013-07-18 18:00:00,
2013-07-18 14:05:00,101.2,76.6,31.83,West,259,0.0,1.0,46,0.00,,---,0.00,VWS V14.01,2013-07-18 18:05:00,
2013-07-18 14:10:00,101.3,76.7,31.83,West,263,2.0,2.0,46,0.00,,---,0.00,VWS V14.01,2013-07-18 18:10:00,
2013-07-18 14:15:00,101.0,76.4,31.83,WSW,251,0.0,5.0,46,0.00,,---,0.00,VWS V14.01,2013-07-18 18:15:00,
2013-07-18 14:20:00,100.1,77.5,31.83,WSW,246,1.0,5.0,49,0.00,,---,0.00,VWS V14.01,2013-07-18 18:20:00,
2013-07-18 14:25:00,100.0,76.8,31.83,WSW,246,0.0,5.0,48,0.00,,---,0.00,VWS V14.01,2013-07-18 18:25:00,
2013-07-18 14:31:00,100.9,77.6,31.83,West,269,0.0,0.0,48,0.00,,---,0.00,VWS V14.01,2013-07-18 18:31:00,
2013-07-18 14:36:00,101.4,78.1,31.83,NNW,344,0.0,2.0,48,0.00,,---,0.00,VWS V14.01,2013-07-18 18:36:00,
2013-07-18 14:41:00,100.7,78.7,31.83,NNW,328,0.0,3.0,50,0.00,,---,0.00,VWS V14.01,2013-07-18 18:41:00,
2013-07-18 14:46:00,100.2,78.2,31.83,WNW,289,0.0,1.0,50,0.00,,---,0.00,VWS V14.01,2013-07-18 18:46:00,
2013-07-18 14:51:00,100.4,77.2,31.83,SW,234,0.0,4.0,48,0.00,,---,0.00,VWS V14.01,2013-07-18 18:51:00,
2013-07-18 14:56:00,100.9,78.8,31.83,WNW,303,1.0,7.0,50,0.00,,---,0.00,VWS V14.01,2013-07-18 18:56:00,
2013-07-18 15:01:00,101.5,78.2,31.83,NW,309,0.0,7.0,48,0.00,,---,0.00,VWS V14.01,2013-07-18 19:01:00,
2013-07-18 15:06:00,101.4,78.7,31.83,West,280,0.0,6.0,49,0.00,,---,0.00,VWS V14.01,2013-07-18 19:06:00,
2013-07-18 15:11:00,100.8,77.5,31.83,West,267,0.0,6.0,48,0.00,,---,0.00,VWS V14.01,2013-07-18 19:11:00,
2013-07-18 15:16:00,101.2,77.2,31.83,West,268,1.0,10.0,47,0.00,,---,0.00,VWS V14.01,2013-07-18 19:16:00,
2013-07-18 15:21:00,101.0,78.3,31.83,WSW,257,4.0,10.0,49,0.00,,---,0.00,VWS V14.01,2013-07-18 19:21:00,
2013-07-18 15:26:00,101.1,77.8,31.83,West,263,1.0,10.0,48,0.00,,---,0.00,VWS V14.01,2013-07-18 19:26:00,
2013-07-18 15:31:00,100.7,77.4,31.83,West,265,3.0,10.0,48,0.00,,---,0.00,VWS V14.01,2013-07-18 19:31:00,
2013-07-18 15:36:00,101.1,77.8,31.83,West,269,0.0,4.0,48,0.00,,---,0.00,VWS V14.01,2013-07-18 19:36:00,
2013-07-18 15:41:00,100.8,77.5,31.83,West,260,0.0,4.0,48,0.00,,---,0.00,VWS V14.01,2013-07-18 19:41:00,
2013-07-18 15:46:00,101.2,77.9,31.83,West,259,3.0,5.0,48,0.00,,---,0.00,VWS V14.01,2013-07-18 19:46:00,
2013-07-18 15:51:00,100.4,77.2,31.83,West,265,1.0,10.0,48,0.00,,---,0.00,VWS V14.01,2013-07-18 19:51:00,
2013-07-18 15:56:00,100.7,78.1,31.83,West,271,4.0,10.0,49,0.00,,---,0.00,VWS V14.01,2013-07-18 19:56:00,
2013-07-18 16:01:00,100.5,77.2,31.83,WSW,252,1.0,10.0,48,0.00,,---,0.00,VWS V14.01,2013-07-18 20:01:00,
2013-07-18 16:06:00,101.0,77.7,31.83,West,271,0.0,5.0,48,0.00,,---,0.00,VWS V14.01,2013-07-18 20:06:00,
2013-07-18 16:11:00,101.6,78.2,31.83,WNW,301,0.0,5.0,48,0.00,,---,0.00,VWS V14.01,2013-07-18 20:11:00,
2013-07-18 16:16:00,101.1,78.4,31.83,SW,232,0.0,12.0,49,0.00,,---,0.00,VWS V14.01,2013-07-18 20:16:00,
2013-07-18 16:21:00,101.4,78.1,31.83,West,267,3.0,12.0,48,0.00,,---,0.00,VWS V14.01,2013-07-18 20:21:00,
2013-07-18 16:26:00,101.0,77.7,31.83,West,267,1.0,12.0,48,0.00,,---,0.00,VWS V14.01,2013-07-18 20:26:00,
2013-07-18 16:31:00,100.4,77.2,31.83,West,262,3.0,12.0,48,0.00,,---,0.00,VWS V14.01,2013-07-18 20:31:00,
2013-07-18 16:36:00,100.2,77.0,31.83,West,271,0.0,2.0,48,0.00,,---,0.00,VWS V14.01,2013-07-18 20:36:00,
2013-07-18 16:41:00,100.5,77.2,31.83,WSW,254,0.0,4.0,48,0.00,,---,0.00,VWS V14.01,2013-07-18 20:41:00,
2013-07-18 16:46:00,100.0,76.2,31.83,SW,233,1.0,7.0,47,0.00,,---,0.00,VWS V14.01,2013-07-18 20:46:00,
2013-07-18 16:51:00,99.8,77.2,31.83,West,269,0.0,7.0,49,0.00,,---,0.00,VWS V14.01,2013-07-18 20:51:00,
2013-07-18 16:56:00,100.6,78.0,31.83,West,272,0.0,7.0,49,0.00,,---,0.00,VWS V14.01,2013-07-18 20:56:00,
2013-07-18 17:01:00,100.6,79.2,31.83,West,269,1.0,7.0,51,0.00,,---,0.00,VWS V14.01,2013-07-18 21:01:00,
2013-07-18 17:06:00,99.8,79.6,31.83,WSW,240,2.0,3.0,53,0.00,,---,0.00,VWS V14.01,2013-07-18 21:06:00,
2013-07-18 17:11:00,100.3,78.3,31.83,WSW,240,0.0,3.0,50,0.00,,---,0.00,VWS V14.01,2013-07-18 21:11:00,
2013-07-18 17:16:00,100.9,80.1,31.83,WSW,240,0.0,3.0,52,0.00,,---,0.00,VWS V14.01,2013-07-18 21:16:00,
2013-07-18 17:21:00,101.0,80.1,31.83,SW,231,0.0,3.0,52,0.00,,---,0.00,VWS V14.01,2013-07-18 21:21:00,
2013-07-18 17:26:00,101.5,80.0,31.83,SW,230,1.0,3.0,51,0.00,,---,0.00,VWS V14.01,2013-07-18 21:26:00,
2013-07-18 17:31:00,101.6,78.9,31.83,SW,230,0.0,3.0,49,0.00,,---,0.00,VWS V14.01,2013-07-18 21:31:00,
2013-07-18 17:36:00,101.6,80.7,31.83,SW,231,1.0,1.0,52,0.00,,---,0.00,VWS V14.01,2013-07-18 21:36:00,
2013-07-18 17:41:00,101.2,80.3,31.83,SW,230,0.0,1.0,52,0.00,,---,0.00,VWS V14.01,2013-07-18 21:41:00,
2013-07-18 17:46:00,100.5,80.3,31.83,SW,231,1.0,1.0,53,0.00,,---,0.00,VWS V14.01,2013-07-18 21:46:00,
2013-07-18 17:51:00,100.2,80.6,31.83,SW,230,0.0,2.0,54,0.00,,---,0.00,VWS V14.01,2013-07-18 21:51:00,
2013-07-18 17:56:00,99.8,79.0,31.83,SW,230,0.0,2.0,52,0.00,,---,0.00,VWS V14.01,2013-07-18 21:56:00,
2013-07-18 18:01:00,99.8,80.2,31.83,SW,231,0.0,2.0,54,0.00,,---,0.00,VWS V14.01,2013-07-18 22:01:00,
2013-07-18 18:06:00,99.9,78.5,31.83,SW,231,1.0,1.0,51,0.00,,---,0.00,VWS V14.01,2013-07-18 22:06:00,
2013-07-18 18:11:00,100.0,78.0,31.83,West,281,0.0,6.0,50,0.00,,---,0.00,VWS V14.01,2013-07-18 22:11:00,
2013-07-18 18:16:00,100.1,77.5,31.83,West,280,0.0,6.0,49,0.00,,---,0.00,VWS V14.01,2013-07-18 22:16:00,
2013-07-18 18:21:00,100.0,78.0,31.83,West,280,2.0,6.0,50,0.00,,---,0.00,VWS V14.01,2013-07-18 22:21:00,
2013-07-18 18:26:00,99.6,77.7,31.83,West,269,4.0,6.0,50,0.00,,---,0.00,VWS V14.01,2013-07-18 22:26:00,
2013-07-18 18:31:00,99.4,77.5,31.83,West,267,0.0,6.0,50,0.00,,---,0.00,VWS V14.01,2013-07-18 22:31:00,
2013-07-18 18:36:00,99.4,77.5,31.83,West,260,0.0,3.0,50,0.00,,---,0.00,VWS V14.01,2013-07-18 22:36:00,
2013-07-18 18:41:00,99.1,77.8,31.83,West,261,0.0,3.0,51,0.00,,---,0.00,VWS V14.01,2013-07-18 22:41:00,
2013-07-18 18:46:00,99.0,77.7,31.83,West,261,0.0,4.0,51,0.00,,---,0.00,VWS V14.01,2013-07-18 22:46:00,
2013-07-18 18:51:00,98.7,77.4,31.83,West,260,0.0,4.0,51,0.00,,---,0.00,VWS V14.01,2013-07-18 22:51:00,
2013-07-18 18:56:00,98.5,77.8,31.83,West,260,1.0,4.0,52,0.00,,---,0.00,VWS V14.01,2013-07-18 22:56:00,
2013-07-18 19:01:00,98.2,77.6,31.83,West,261,0.0,4.0,52,0.00,,---,0.00,VWS V14.01,2013-07-18 23:01:00,
2013-07-18 19:06:00,97.7,77.7,31.83,West,260,0.0,1.0,53,0.00,,---,0.00,VWS V14.01,2013-07-18 23:06:00,
2013-07-18 19:11:00,97.4,77.4,31.83,West,260,0.0,1.0,53,0.00,,---,0.00,VWS V14.01,2013-07-18 23:11:00,
2013-07-18 19:16:00,97.2,77.8,31.83,West,261,0.0,1.0,54,0.00,,---,0.00,VWS V14.01,2013-07-18 23:16:00,
2013-07-18 19:21:00,96.9,78.1,31.83,West,261,0.0,1.0,55,0.00,,---,0.00,VWS V14.01,2013-07-18 23:21:00,
2013-07-18 19:26:00,96.7,77.9,31.83,West,261,0.0,1.0,55,0.00,,---,0.00,VWS V14.01,2013-07-18 23:26:00,
2013-07-18 19:31:00,96.3,78.1,31.83,West,261,0.0,1.0,56,0.00,,---,0.00,VWS V14.01,2013-07-18 23:31:00,
2013-07-18 19:36:00,96.0,78.3,31.83,West,260,0.0,0.0,57,0.00,,---,0.00,VWS V14.01,2013-07-18 23:36:00,
2013-07-18 19:41:00,95.6,77.9,31.83,West,261,0.0,0.0,57,0.00,,---,0.00,VWS V14.01,2013-07-18 23:41:00,
2013-07-18 19:46:00,95.3,78.2,31.83,West,261,0.0,0.0,58,0.00,,---,0.00,VWS V14.01,2013-07-18 23:46:00,
2013-07-18 19:51:00,94.9,78.3,31.83,West,261,0.0,0.0,59,0.00,,---,0.00,VWS V14.01,2013-07-18 23:51:00,
2013-07-18 19:56:00,94.2,78.2,31.83,West,260,0.0,0.0,60,0.00,,---,0.00,VWS V14.01,2013-07-18 23:56:00,
2013-07-18 20:01:00,93.8,77.8,31.83,West,261,0.0,0.0,60,0.00,,---,0.00,VWS V14.01,2013-07-19 00:01:00,
2013-07-18 20:06:00,93.4,77.9,31.83,West,261,0.0,0.0,61,0.00,,---,0.00,VWS V14.01,2013-07-19 00:06:00,
2013-07-18 20:11:00,92.9,78.4,31.83,West,260,0.0,0.0,63,0.00,,---,0.00,VWS V14.01,2013-07-19 00:11:00,
2013-07-18 20:16:00,92.7,78.3,31.83,West,261,0.0,0.0,63,0.00,,---,0.00,VWS V14.01,2013-07-19 00:16:00,
2013-07-18 20:21:00,92.2,78.7,31.83,West,261,0.0,0.0,65,0.00,,---,0.00,VWS V14.01,2013-07-19 00:21:00,
2013-07-18 20:26:00,91.8,78.4,31.83,West,261,0.0,0.0,65,0.00,,---,0.00,VWS V14.01,2013-07-19 00:26:00,
2013-07-18 20:31:00,91.6,78.6,31.83,West,261,0.0,0.0,66,0.00,,---,0.00,VWS V14.01,2013-07-19 00:31:00,
2013-07-18 20:36:00,91.4,78.4,31.83,West,260,0.0,0.0,66,0.00,,---,0.00,VWS V14.01,2013-07-19 00:36:00,
2013-07-18 20:41:00,91.1,78.2,31.83,West,260,0.0,1.0,66,0.00,,---,0.00,VWS V14.01,2013-07-19 00:41:00,
2013-07-18 20:46:00,90.7,77.8,31.83,West,261,0.0,1.0,66,0.00,,---,0.00,VWS V14.01,2013-07-19 00:46:00,
2013-07-18 20:51:00,90.4,77.9,31.83,West,260,0.0,1.0,67,0.00,,---,0.00,VWS V14.01,2013-07-19 00:51:00,
2013-07-18 20:56:00,90.1,78.1,31.83,West,261,0.0,1.0,68,0.00,,---,0.00,VWS V14.01,2013-07-19 00:56:00,
2013-07-18 21:01:00,90.0,78.0,31.83,West,261,0.0,1.0,68,0.00,,---,0.00,VWS V14.01,2013-07-19 01:01:00,
2013-07-18 21:06:00,90.0,78.5,31.83,West,261,0.0,0.0,69,0.00,,---,0.00,VWS V14.01,2013-07-19 01:06:00,
2013-07-18 21:11:00,89.9,78.8,31.83,West,261,0.0,0.0,70,0.00,,---,0.00,VWS V14.01,2013-07-19 01:11:00,
2013-07-18 21:16:00,89.8,78.7,31.83,West,261,0.0,0.0,70,0.00,,---,0.00,VWS V14.01,2013-07-19 01:16:00,
2013-07-18 21:21:00,89.7,79.1,31.83,West,261,0.0,0.0,71,0.00,,---,0.00,VWS V14.01,2013-07-19 01:21:00,
2013-07-18 21:26:00,89.5,79.3,31.83,West,261,0.0,0.0,72,0.00,,---,0.00,VWS V14.01,2013-07-19 01:26:00,
2013-07-18 21:31:00,89.3,79.5,31.83,West,260,0.0,0.0,73,0.00,,---,0.00,VWS V14.01,2013-07-19 01:31:00,
2013-07-18 21:36:00,89.2,79.4,31.83,West,261,0.0,0.0,73,0.00,,---,0.00,VWS V14.01,2013-07-19 01:36:00,
2013-07-18 21:41:00,89.0,79.6,31.83,West,261,0.0,0.0,74,0.00,,---,0.00,VWS V14.01,2013-07-19 01:41:00,
2013-07-18 21:46:00,88.6,79.7,31.83,West,260,0.0,0.0,75,0.00,,---,0.00,VWS V14.01,2013-07-19 01:46:00,
2013-07-18 21:51:00,88.2,79.7,31.83,West,260,0.0,0.0,76,0.00,,---,0.00,VWS V14.01,2013-07-19 01:51:00,
2013-07-18 21:56:00,88.1,79.6,31.83,West,261,0.0,0.0,76,0.00,,---,0.00,VWS V14.01,2013-07-19 01:56:00,
2013-07-18 22:01:00,88.0,79.5,31.83,West,261,0.0,0.0,76,0.00,,---,0.00,VWS V14.01,2013-07-19 02:01:00,
2013-07-18 22:06:00,87.9,79.4,31.83,West,261,0.0,0.0,76,0.00,,---,0.00,VWS V14.01,2013-07-19 02:06:00,
2013-07-18 22:11:00,87.8,79.7,31.83,West,261,0.0,0.0,77,0.00,,---,0.00,VWS V14.01,2013-07-19 02:11:00,
2013-07-18 22:16:00,87.6,79.5,31.83,West,261,0.0,0.0,77,0.00,,---,0.00,VWS V14.01,2013-07-19 02:16:00,
2013-07-18 22:21:00,87.3,79.6,31.83,West,261,0.0,0.0,78,0.00,,---,0.00,VWS V14.01,2013-07-19 02:21:00,
2013-07-18 22:26:00,87.1,79.4,31.83,West,261,0.0,0.0,78,0.00,,---,0.00,VWS V14.01,2013-07-19 02:26:00,
2013-07-18 22:31:00,87.1,79.4,31.83,West,261,0.0,0.0,78,0.00,,---,0.00,VWS V14.01,2013-07-19 02:31:00,
2013-07-18 22:36:00,87.0,79.3,31.83,West,261,0.0,0.0,78,0.00,,---,0.00,VWS V14.01,2013-07-19 02:36:00,
2013-07-18 22:41:00,86.8,79.5,31.83,West,261,0.0,0.0,79,0.00,,---,0.00,VWS V14.01,2013-07-19 02:41:00,
2013-07-18 22:46:00,86.7,79.8,31.83,West,261,0.0,0.0,80,0.00,,---,0.00,VWS V14.01,2013-07-19 02:46:00,
2013-07-18 22:51:00,86.6,79.7,31.83,West,260,0.0,0.0,80,0.00,,---,0.00,VWS V14.01,2013-07-19 02:51:00,
2013-07-18 22:56:00,86.6,79.7,31.83,West,260,0.0,1.0,80,0.00,,---,0.00,VWS V14.01,2013-07-19 02:56:00,
2013-07-18 23:01:00,86.5,79.6,31.83,West,261,0.0,1.0,80,0.00,,---,0.00,VWS V14.01,2013-07-19 03:01:00,
2013-07-18 23:06:00,86.4,79.5,31.83,West,261,0.0,0.0,80,0.00,,---,0.00,VWS V14.01,2013-07-19 03:06:00,
2013-07-18 23:11:00,86.3,79.8,31.83,West,261,0.0,0.0,81,0.00,,---,0.00,VWS V14.01,2013-07-19 03:11:00,
2013-07-18 23:16:00,86.1,79.6,31.83,West,261,0.0,0.0,81,0.00,,---,0.00,VWS V14.01,2013-07-19 03:16:00,
2013-07-18 23:21:00,86.1,79.6,31.83,West,261,0.0,0.0,81,0.00,,---,0.00,VWS V14.01,2013-07-19 03:21:00,
2013-07-18 23:26:00,86.0,79.5,31.83,West,261,0.0,0.0,81,0.00,,---,0.00,VWS V14.01,2013-07-19 03:26:00,
2013-07-18 23:31:00,85.9,79.4,31.83,West,260,0.0,0.0,81,0.00,,---,0.00,VWS V14.01,2013-07-19 03:31:00,
2013-07-18 23:36:00,85.9,79.4,31.83,West,261,0.0,0.0,81,0.00,,---,0.00,VWS V14.01,2013-07-19 03:36:00,
2013-07-18 23:41:00,85.8,79.3,31.83,West,260,0.0,0.0,81,0.00,,---,0.00,VWS V14.01,2013-07-19 03:41:00,
2013-07-18 23:46:00,85.7,79.2,31.83,West,261,0.0,1.0,81,0.00,,---,0.00,VWS V14.01,2013-07-19 03:46:00,
2013-07-18 23:51:00,85.7,79.2,31.83,West,261,0.0,3.0,81,0.00,,---,0.00,VWS V14.01,2013-07-19 03:51:00,
2013-07-18 23:56:00,85.7,79.2,31.83,West,261,0.0,3.0,81,0.00,,---,0.00,VWS V14.01,2013-07-19 03:56:00,